Time,TemperatureF,DewpointF,PressureIn,WindDirection,WindDirectionDegrees,WindSpeedMPH,WindSpeedGustMPH,Humidity,HourlyPrecipIn,Conditions,Clouds,dailyrainin,SoftwareType,DateUTC
2013-02-23 00:12:00,35.0,29.0,-100.00,WSW,255,8.0,11.0,80,-99.99,,,-99.99,,2013-02-23 05:12:00,
2013-02-23 00:23:00,35.0,29.0,-100.00,WSW,255,8.0,11.0,80,-99.99,,,-99.99,,2013-02-23 05:23:00,
2013-02-23 00:33:00,35.0,30.0,-100.00,WSW,255,10.0,13.0,81,-99.99,,,-99.99,,2013-02-23 05:33:00,
2013-02-23 00:42:00,35.0,30.0,-100.00,West,275,7.0,15.0,82,-99.99,,,-99.99,,2013-02-23 05:42:00,
2013-02-23 00:52:00,35.0,30.0,-100.00,West,275,7.0,15.0,82,-99.99,,,-99.99,,2013-02-23 05:52:00,
2013-02-23 01:02:00,35.0,30.0,-100.00,WNW,295,3.0,9.0,82,-99.99,,,-99.99,,2013-02-23 06:02:00,
2013-02-23 01:11:00,35.0,31.0,-100.00,WSW,255,4.0,12.0,83,-99.99,,,-99.99,,2013-02-23 06:11:00,
2013-02-23 01:23:00,35.0,31.0,-100.00,WSW,255,4.0,12.0,83,-99.99,,,-99.99,,2013-02-23 06:23:00,
2013-02-23 01:32:00,35.0,31.0,-100.00,West,270,6.0,11.0,84,-99.99,,,-99.99,,2013-02-23 06:32:00,
2013-02-23 01:42:00,35.0,31.0,-100.00,SW,230,5.0,8.0,84,-99.99,,,-99.99,,2013-02-23 06:42:00,
2013-02-23 01:51:00,35.0,31.0,-100.00,SW,230,5.0,8.0,84,-99.99,,,-99.99,,2013-02-23 06:51:00,
2013-02-23 02:01:00,35.0,31.0,-100.00,West,265,6.0,10.0,84,-99.99,,,-99.99,,2013-02-23 07:01:00,
2013-02-23 02:11:00,35.0,31.0,-100.00,West,280,5.0,11.0,85,-99.99,,,-99.99,,2013-02-23 07:11:00,
2013-02-23 02:21:00,35.0,31.0,-100.00,West,280,5.0,11.0,85,-99.99,,,-99.99,,2013-02-23 07:21:00,
2013-02-23 02:32:00,35.0,31.0,-100.00,SW,235,4.0,6.0,86,-99.99,,,-99.99,,2013-02-23 07:32:00,
2013-02-23 02:42:00,34.0,31.0,-100.00,SW,235,4.0,7.0,88,-99.99,,,-99.99,,2013-02-23 07:42:00,
2013-02-23 02:52:00,34.0,31.0,-100.00,SW,235,4.0,7.0,88,-99.99,,,-99.99,,2013-02-23 07:52:00,
2013-02-23 03:01:00,34.0,31.0,-100.00,SW,225,4.0,7.0,89,-99.99,,,-99.99,,2013-02-23 08:01:00,
2013-02-23 03:11:00,34.0,32.0,-100.00,SW,235,6.0,11.0,91,-99.99,,,-99.99,,2013-02-23 08:11:00,
2013-02-23 03:21:00,34.0,32.0,-100.00,SW,235,6.0,11.0,91,-99.99,,,-99.99,,2013-02-23 08:21:00,
2013-02-23 03:32:00,34.0,32.0,-100.00,SW,235,6.0,9.0,92,-99.99,,,-99.99,,2013-02-23 08:32:00,
2013-02-23 03:42:00,34.0,32.0,-100.00,SW,230,5.0,9.0,92,-99.99,,,-99.99,,2013-02-23 08:42:00,
2013-02-23 03:52:00,34.0,32.0,-100.00,SW,230,5.0,9.0,92,-99.99,,,-99.99,,2013-02-23 08:52:00,
2013-02-23 04:02:00,34.0,32.0,-100.00,SW,230,6.0,10.0,93,-99.99,,,-99.99,,2013-02-23 09:02:00,
2013-02-23 04:11:00,34.0,32.0,-100.00,SW,220,6.0,9.0,94,-99.99,,,-99.99,,2013-02-23 09:11:00,
2013-02-23 04:22:00,34.0,32.0,-100.00,SW,220,6.0,9.0,94,-99.99,,,-99.99,,2013-02-23 09:22:00,
2013-02-23 04:32:00,34.0,32.0,-100.00,SW,235,6.0,9.0,94,-99.99,,,-99.99,,2013-02-23 09:32:00,
2013-02-23 04:42:00,34.0,33.0,-100.00,SW,215,5.0,7.0,95,-99.99,,,-99.99,,2013-02-23 09:42:00,
2013-02-23 04:52:00,34.0,33.0,-100.00,SW,215,5.0,7.0,95,-99.99,,,-99.99,,2013-02-23 09:52:00,
2013-02-23 05:01:00,34.0,33.0,-100.00,WSW,240,5.0,9.0,95,-99.99,,,-99.99,,2013-02-23 10:01:00,
2013-02-23 05:11:00,34.0,33.0,-100.00,WSW,245,5.0,9.0,95,-99.99,,,-99.99,,2013-02-23 10:11:00,
2013-02-23 05:21:00,34.0,33.0,-100.00,WSW,245,5.0,9.0,95,-99.99,,,-99.99,,2013-02-23 10:21:00,
2013-02-23 05:32:00,35.0,33.0,-100.00,SW,235,5.0,9.0,95,-99.99,,,-99.99,,2013-02-23 10:32:00,
2013-02-23 05:42:00,35.0,34.0,-100.00,WSW,245,5.0,9.0,96,-99.99,,,-99.99,,2013-02-23 10:42:00,
2013-02-23 05:51:00,35.0,34.0,-100.00,WSW,245,5.0,9.0,96,-99.99,,,-99.99,,2013-02-23 10:51:00,
2013-02-23 06:02:00,35.0,34.0,-100.00,WSW,245,6.0,8.0,96,-99.99,,,-99.99,,2013-02-23 11:02:00,
2013-02-23 06:11:00,35.0,34.0,-100.00,WSW,245,4.0,8.0,96,-99.99,,,-99.99,,2013-02-23 11:11:00,
2013-02-23 06:22:00,35.0,34.0,-100.00,WSW,245,4.0,8.0,96,-99.99,,,-99.99,,2013-02-23 11:22:00,
2013-02-23 06:32:00,35.0,34.0,-100.00,WSW,240,5.0,10.0,96,-99.99,,,-99.99,,2013-02-23 11:32:00,
2013-02-23 06:42:00,35.0,34.0,-100.00,WSW,240,5.0,10.0,96,-99.99,,,-99.99,,2013-02-23 11:42:00,
2013-02-23 06:52:00,35.0,34.0,-100.00,WSW,240,5.0,10.0,96,-99.99,,,-99.99,,2013-02-23 11:52:00,
2013-02-23 07:02:00,36.0,35.0,-100.00,SW,235,5.0,10.0,96,-99.99,,,-99.99,,2013-02-23 12:02:00,
2013-02-23 07:11:00,36.0,35.0,-100.00,SW,235,6.0,13.0,96,-99.99,,,-99.99,,2013-02-23 12:11:00,
2013-02-23 07:22:00,36.0,35.0,-100.00,SW,235,6.0,13.0,96,-99.99,,,-99.99,,2013-02-23 12:22:00,
2013-02-23 07:32:00,36.0,35.0,-100.00,WSW,240,6.0,13.0,96,-99.99,,,-99.99,,2013-02-23 12:32:00,
2013-02-23 07:42:00,36.0,35.0,-100.00,WSW,245,9.0,12.0,96,-99.99,,,-99.99,,2013-02-23 12:42:00,
2013-02-23 07:52:00,36.0,35.0,-100.00,WSW,245,9.0,12.0,96,-99.99,,,-99.99,,2013-02-23 12:52:00,
2013-02-23 08:02:00,36.0,35.0,-100.00,WSW,240,9.0,14.0,96,-99.99,,,-99.99,,2013-02-23 13:02:00,
2013-02-23 08:12:00,36.0,35.0,-100.00,WSW,240,9.0,14.0,96,-99.99,,,-99.99,,2013-02-23 13:12:00,
2013-02-23 08:32:00,37.0,36.0,-100.00,WSW,250,8.0,13.0,96,-99.99,,,-99.99,,2013-02-23 13:32:00,
2013-02-23 08:42:00,37.0,36.0,-100.00,WSW,255,9.0,13.0,96,-99.99,,,-99.99,,2013-02-23 13:42:00,
2013-02-23 08:52:00,37.0,36.0,-100.00,WSW,255,9.0,13.0,96,-99.99,,,-99.99,,2013-02-23 13:52:00,
2013-02-23 09:02:00,37.0,36.0,-100.00,SW,235,6.0,12.0,96,-99.99,,,-99.99,,2013-02-23 14:02:00,
2013-02-23 09:11:00,38.0,37.0,-100.00,SW,230,5.0,11.0,96,-99.99,,,-99.99,,2013-02-23 14:11:00,
2013-02-23 09:22:00,38.0,37.0,-100.00,SW,230,5.0,11.0,96,-99.99,,,-99.99,,2013-02-23 14:22:00,
2013-02-23 09:32:00,38.0,37.0,-100.00,WSW,245,5.0,12.0,96,-99.99,,,-99.99,,2013-02-23 14:32:00,
2013-02-23 09:42:00,38.0,37.0,-100.00,WSW,240,6.0,8.0,96,-99.99,,,-99.99,,2013-02-23 14:42:00,
2013-02-23 09:52:00,38.0,37.0,-100.00,WSW,240,6.0,8.0,96,-99.99,,,-99.99,,2013-02-23 14:52:00,
2013-02-23 10:02:00,38.0,37.0,-100.00,WSW,250,6.0,13.0,96,-99.99,,,-99.99,,2013-02-23 15:02:00,
2013-02-23 10:11:00,38.0,37.0,-100.00,WSW,250,7.0,11.0,96,-99.99,,,-99.99,,2013-02-23 15:11:00,
2013-02-23 10:22:00,38.0,37.0,-100.00,WSW,250,7.0,11.0,96,-99.99,,,-99.99,,2013-02-23 15:22:00,
2013-02-23 10:32:00,38.0,37.0,-100.00,WSW,240,10.0,16.0,96,-99.99,,,-99.99,,2013-02-23 15:32:00,
2013-02-23 10:42:00,39.0,38.0,-100.00,WSW,245,9.0,14.0,96,-99.99,,,-99.99,,2013-02-23 15:42:00,
2013-02-23 10:52:00,39.0,38.0,-100.00,WSW,245,9.0,14.0,96,-99.99,,,-99.99,,2013-02-23 15:52:00,
2013-02-23 11:01:00,39.0,38.0,-100.00,WSW,255,11.0,15.0,96,-99.99,,,-99.99,,2013-02-23 16:01:00,
2013-02-23 11:11:00,39.0,38.0,-100.00,WSW,240,10.0,15.0,96,-99.99,,,-99.99,,2013-02-23 16:11:00,
2013-02-23 11:22:00,39.0,38.0,-100.00,WSW,240,10.0,15.0,96,-99.99,,,-99.99,,2013-02-23 16:22:00,
2013-02-23 11:32:00,39.0,38.0,-100.00,WSW,240,7.0,14.0,96,-99.99,,,-99.99,,2013-02-23 16:32:00,
2013-02-23 11:42:00,40.0,39.0,-100.00,WSW,255,6.0,13.0,96,-99.99,,,-99.99,,2013-02-23 16:42:00,
2013-02-23 11:52:00,40.0,39.0,-100.00,WSW,255,6.0,13.0,96,-99.99,,,-99.99,,2013-02-23 16:52:00,
2013-02-23 12:01:00,40.0,39.0,-100.00,WSW,250,7.0,13.0,96,-99.99,,,-99.99,,2013-02-23 17:01:00,
2013-02-23 12:11:00,40.0,39.0,-100.00,West,260,10.0,15.0,96,-99.99,,,-99.99,,2013-02-23 17:11:00,
2013-02-23 12:22:00,40.0,39.0,-100.00,West,260,10.0,15.0,96,-99.99,,,-99.99,,2013-02-23 17:22:00,
2013-02-23 12:42:00,41.0,40.0,-100.00,WSW,250,9.0,14.0,96,-99.99,,,-99.99,,2013-02-23 17:42:00,
2013-02-23 12:52:00,41.0,40.0,-100.00,WSW,250,9.0,14.0,96,-99.99,,,-99.99,,2013-02-23 17:52:00,
2013-02-23 13:02:00,41.0,40.0,-100.00,WSW,240,9.0,12.0,96,-99.99,,,-99.99,,2013-02-23 18:02:00,
2013-02-23 13:12:00,41.0,40.0,-100.00,WSW,240,5.0,11.0,96,-99.99,,,-99.99,,2013-02-23 18:12:00,
2013-02-23 13:22:00,41.0,40.0,-100.00,WSW,240,5.0,11.0,96,-99.99,,,-99.99,,2013-02-23 18:22:00,
2013-02-23 13:32:00,42.0,40.0,-100.00,WSW,255,9.0,13.0,96,-99.99,,,-99.99,,2013-02-23 18:32:00,
2013-02-23 13:42:00,42.0,40.0,-100.00,SW,220,6.0,14.0,96,-99.99,,,-99.99,,2013-02-23 18:42:00,
2013-02-23 13:52:00,42.0,40.0,-100.00,SW,220,6.0,14.0,96,-99.99,,,-99.99,,2013-02-23 18:52:00,
2013-02-23 14:01:00,42.0,40.0,-100.00,SW,230,4.0,10.0,95,-99.99,,,-99.99,,2013-02-23 19:01:00,
2013-02-23 14:11:00,42.0,41.0,-100.00,SW,235,5.0,7.0,95,-99.99,,,-99.99,,2013-02-23 19:11:00,
2013-02-23 14:21:00,42.0,41.0,-100.00,SW,235,5.0,7.0,95,-99.99,,,-99.99,,2013-02-23 19:21:00,
2013-02-23 14:32:00,42.0,41.0,-100.00,WSW,250,5.0,9.0,95,-99.99,,,-99.99,,2013-02-23 19:32:00,
2013-02-23 14:42:00,43.0,41.0,-100.00,SW,235,5.0,7.0,95,-99.99,,,-99.99,,2013-02-23 19:42:00,
2013-02-23 14:52:00,43.0,41.0,-100.00,SW,235,5.0,7.0,95,-99.99,,,-99.99,,2013-02-23 19:52:00,
2013-02-23 15:01:00,43.0,41.0,-100.00,SW,230,4.0,7.0,95,-99.99,,,-99.99,,2013-02-23 20:01:00,
2013-02-23 15:11:00,43.0,42.0,-100.00,SW,225,2.0,6.0,96,-99.99,,,-99.99,,2013-02-23 20:11:00,
2013-02-23 15:22:00,43.0,42.0,-100.00,SW,225,2.0,6.0,96,-99.99,,,-99.99,,2013-02-23 20:22:00,
2013-02-23 15:31:00,43.0,42.0,-100.00,SW,235,6.0,9.0,96,-99.99,,,-99.99,,2013-02-23 20:31:00,
2013-02-23 15:32:00,43.0,42.0,-100.00,SW,220,3.0,6.0,96,-99.99,,,-99.99,,2013-02-23 20:32:00,
2013-02-23 15:42:00,43.0,42.0,-100.00,SW,230,3.0,7.0,96,-99.99,,,-99.99,,2013-02-23 20:42:00,
2013-02-23 15:53:00,43.0,42.0,-100.00,SW,230,3.0,7.0,96,-99.99,,,-99.99,,2013-02-23 20:53:00,
2013-02-23 16:02:00,43.0,42.0,-100.00,SW,230,4.0,7.0,96,-99.99,,,-99.99,,2013-02-23 21:02:00,
2013-02-23 16:11:00,43.0,42.0,-100.00,SW,235,6.0,9.0,96,-99.99,,,-99.99,,2013-02-23 21:11:00,
2013-02-23 16:22:00,43.0,42.0,-100.00,SW,235,6.0,9.0,96,-99.99,,,-99.99,,2013-02-23 21:22:00,
2013-02-23 16:42:00,43.0,42.0,-100.00,WSW,240,5.0,7.0,96,-99.99,,,-99.99,,2013-02-23 21:42:00,
2013-02-23 16:52:00,43.0,42.0,-100.00,WSW,240,5.0,7.0,96,-99.99,,,-99.99,,2013-02-23 21:52:00,
2013-02-23 17:02:00,43.0,42.0,-100.00,SW,215,7.0,13.0,96,-99.99,,,-99.99,,2013-02-23 22:02:00,
2013-02-23 17:11:00,42.0,41.0,-100.00,SW,235,7.0,12.0,96,-99.99,,,-99.99,,2013-02-23 22:11:00,
2013-02-23 17:22:00,42.0,41.0,-100.00,SW,235,7.0,12.0,96,-99.99,,,-99.99,,2013-02-23 22:22:00,
2013-02-23 17:32:00,42.0,41.0,-100.00,SW,220,8.0,14.0,96,-99.99,,,-99.99,,2013-02-23 22:32:00,
2013-02-23 17:42:00,42.0,41.0,-100.00,SW,225,7.0,12.0,96,-99.99,,,-99.99,,2013-02-23 22:42:00,
2013-02-23 17:52:00,42.0,41.0,-100.00,SW,225,7.0,12.0,96,-99.99,,,-99.99,,2013-02-23 22:52:00,
2013-02-23 18:01:00,42.0,41.0,-100.00,SW,225,8.0,13.0,96,-99.99,,,-99.99,,2013-02-23 23:01:00,
2013-02-23 18:11:00,42.0,41.0,-100.00,SW,215,9.0,14.0,96,-99.99,,,-99.99,,2013-02-23 23:11:00,
2013-02-23 18:22:00,42.0,41.0,-100.00,SW,215,9.0,14.0,96,-99.99,,,-99.99,,2013-02-23 23:22:00,
2013-02-23 18:32:00,42.0,40.0,-100.00,SW,225,11.0,15.0,96,-99.99,,,-99.99,,2013-02-23 23:32:00,
2013-02-23 18:42:00,41.0,40.0,-100.00,SSW,210,10.0,13.0,96,-99.99,,,-99.99,,2013-02-23 23:42:00,
2013-02-23 18:52:00,41.0,40.0,-100.00,SSW,210,10.0,13.0,96,-99.99,,,-99.99,,2013-02-23 23:52:00,
2013-02-23 19:02:00,41.0,40.0,-100.00,SW,225,8.0,13.0,96,-99.99,,,-99.99,,2013-02-24 00:02:00,
2013-02-23 19:11:00,41.0,40.0,-100.00,SW,225,5.0,13.0,96,-99.99,,,-99.99,,2013-02-24 00:11:00,
2013-02-23 19:22:00,41.0,40.0,-100.00,SW,225,5.0,13.0,96,-99.99,,,-99.99,,2013-02-24 00:22:00,
2013-02-23 19:32:00,41.0,40.0,-100.00,SW,235,8.0,15.0,96,-99.99,,,-99.99,,2013-02-24 00:32:00,
2013-02-23 19:42:00,41.0,40.0,-100.00,WSW,250,5.0,13.0,96,-99.99,,,-99.99,,2013-02-24 00:42:00,
2013-02-23 19:52:00,41.0,40.0,-100.00,WSW,250,5.0,13.0,96,-99.99,,,-99.99,,2013-02-24 00:52:00,
2013-02-23 20:00:00,40.0,39.0,-100.00,WSW,245,5.0,13.0,96,-99.99,,,-99.99,,2013-02-24 01:00:00,
2013-02-23 20:01:00,41.0,40.0,-100.00,WSW,250,6.0,18.0,96,-99.99,,,-99.99,,2013-02-24 01:01:00,
2013-02-23 20:11:00,40.0,39.0,-100.00,West,265,11.0,14.0,96,-99.99,,,-99.99,,2013-02-24 01:11:00,
2013-02-23 20:22:00,40.0,39.0,-100.00,West,265,11.0,14.0,96,-99.99,,,-99.99,,2013-02-24 01:22:00,
2013-02-23 20:32:00,40.0,39.0,-100.00,WSW,250,3.0,11.0,96,-99.99,,,-99.99,,2013-02-24 01:32:00,
2013-02-23 20:42:00,40.0,39.0,-100.00,WSW,245,5.0,13.0,96,-99.99,,,-99.99,,2013-02-24 01:42:00,
2013-02-23 20:52:00,40.0,39.0,-100.00,WSW,245,5.0,13.0,96,-99.99,,,-99.99,,2013-02-24 01:52:00,
2013-02-23 21:11:00,40.0,39.0,-100.00,SSW,210,4.0,9.0,96,-99.99,,,-99.99,,2013-02-24 02:11:00,
2013-02-23 21:22:00,40.0,39.0,-100.00,SSW,210,4.0,9.0,96,-99.99,,,-99.99,,2013-02-24 02:22:00,
2013-02-23 21:32:00,40.0,39.0,-100.00,SW,225,5.0,9.0,96,-99.99,,,-99.99,,2013-02-24 02:32:00,
2013-02-23 21:42:00,39.0,38.0,-100.00,SSW,210,8.0,12.0,96,-99.99,,,-99.99,,2013-02-24 02:42:00,
2013-02-23 21:52:00,39.0,38.0,-100.00,SSW,210,8.0,12.0,96,-99.99,,,-99.99,,2013-02-24 02:52:00,
2013-02-23 22:02:00,39.0,38.0,-100.00,SW,235,6.0,12.0,96,-99.99,,,-99.99,,2013-02-24 03:02:00,
2013-02-23 22:12:00,39.0,38.0,-100.00,WSW,245,4.0,9.0,96,-99.99,,,-99.99,,2013-02-24 03:12:00,
2013-02-23 22:22:00,39.0,38.0,-100.00,WSW,245,4.0,9.0,96,-99.99,,,-99.99,,2013-02-24 03:22:00,
2013-02-23 22:32:00,39.0,38.0,-100.00,SSW,205,3.0,7.0,96,-99.99,,,-99.99,,2013-02-24 03:32:00,
2013-02-23 22:42:00,39.0,38.0,-100.00,SW,220,3.0,7.0,96,-99.99,,,-99.99,,2013-02-24 03:42:00,
2013-02-23 22:52:00,39.0,38.0,-100.00,SW,220,3.0,7.0,96,-99.99,,,-99.99,,2013-02-24 03:52:00,
2013-02-23 23:02:00,39.0,38.0,-100.00,SW,225,3.0,6.0,96,-99.99,,,-99.99,,2013-02-24 04:02:00,
2013-02-23 23:11:00,38.0,37.0,-100.00,SW,225,1.0,4.0,96,-99.99,,,-99.99,,2013-02-24 04:11:00,
2013-02-23 23:22:00,38.0,37.0,-100.00,SW,225,1.0,4.0,96,-99.99,,,-99.99,,2013-02-24 04:22:00,
2013-02-23 23:32:00,38.0,37.0,-100.00,WSW,240,3.0,5.0,96,-99.99,,,-99.99,,2013-02-24 04:32:00,
2013-02-23 23:42:00,38.0,37.0,-100.00,SSW,210,1.0,3.0,96,-99.99,,,-99.99,,2013-02-24 04:42:00,
2013-02-23 23:52:00,38.0,37.0,-100.00,SSW,210,1.0,3.0,96,-99.99,,,-99.99,,2013-02-24 04:52:00,